Location: Unspecified
(0.0000°N, 0.0000°E)
Time: 13:51:39
(UTC+00:00)

Courier 1B - Pass Details

Date: 30 September 2023
Orbit: 962 x 1208 km, 28.3° (Epoch: 17 September)

Event Time Altitude Azimuth Distance (km) Brightness Sun altitude
Rises 10:57:27 0° 287° (WNW) 3,889 10.5 76.6°
Reaches altitude 10° 11:01:59 10° 313° (NW) 2,989 10.1 77.7°
Maximum altitude 11:05:19 13° 340° (NNW) 2,777 10.0 78.5°
Drops below altitude 10° 11:08:43 10° 7° (N) 3,061 10.2 79.3°
Sets 11:13:31 0° 33° (NNE) 4,064 10.8 80.4°
